Tiempo cada hora Mushino

Hoy, 23 Octubre, Viernes

Tiempo Temperatura Precipitaciones Viento Presión Humedad
00:00 +9°C° 0 mm 6 mps 742 mmHg 89%
01:00 +9°C° 0 mm 6 mps 742 mmHg 90%
02:00 +9°C° 0 mm 5 mps 742 mmHg 90%
03:00 +9°C° 0 mm 5 mps 742 mmHg 92%
04:00 +8°C° 0 mm 5 mps 742 mmHg 93%
05:00 +8°C° 0 mm 4 mps 742 mmHg 94%
06:00 +8°C° 0 mm 4 mps 742 mmHg 94%
07:00 +8°C° 0 mm 4 mps 742 mmHg 94%
08:00 +8°C° 0 mm 4 mps 742 mmHg 94%
09:00 +9°C° 0 mm 5 mps 742 mmHg 91%
10:00 +10°C° 0 mm 5 mps 741 mmHg 88%
11:00 +12°C° 0 mm 5 mps 741 mmHg 85%
12:00 +11°C° 0.1 mm 6 mps 741 mmHg 82%
13:00 +13°C° 0.1 mm 6 mps 740 mmHg 79%
14:00 +14°C° 0.1 mm 7 mps 740 mmHg 76%
15:00 +9°C° 0.1 mm 3 mps 741 mmHg 91%
16:00 +10°C° 0.1 mm 5 mps 740 mmHg 89%
17:00 +11°C° 0.1 mm 6 mps 740 mmHg 87%
18:00 +10°C° 0 mm 6 mps 740 mmHg 89%
19:00 +10°C° 0 mm 5 mps 740 mmHg 91%
20:00 +9°C° 0 mm 5 mps 740 mmHg 93%
21:00 +9°C° 0 mm 5 mps 740 mmHg 94%
22:00 +10°C° 0 mm 4 mps 740 mmHg 95%
23:00 +8°C° 0 mm 4 mps 740 mmHg 96%

Mañana, 24 Octubre, Sábado

Tiempo Temperatura Precipitaciones Viento Presión Humedad
00:00 +9°C° 0 mm 3 mps 741 mmHg 96%
01:00 +8°C° 0 mm 3 mps 741 mmHg 96%
02:00 +8°C° 0 mm 3 mps 741 mmHg 97%
03:00 +8°C° 0 mm 3 mps 741 mmHg 96%
04:00 +7°C° 0 mm 3 mps 741 mmHg 96%
05:00 +7°C° 0 mm 3 mps 741 mmHg 96%
06:00 +7°C° 0 mm 2 mps 741 mmHg 95%
07:00 +8°C° 0 mm 2 mps 741 mmHg 94%
08:00 +8°C° 0 mm 2 mps 741 mmHg 93%
09:00 +9°C° 0 mm 2 mps 741 mmHg 89%
10:00 +10°C° 0 mm 3 mps 741 mmHg 86%
11:00 +10°C° 0 mm 3 mps 741 mmHg 82%
12:00 +10°C° 0 mm 3 mps 741 mmHg 85%
13:00 +10°C° 0 mm 3 mps 741 mmHg 87%
14:00 +10°C° 0 mm 3 mps 741 mmHg 90%
15:00 +9°C° 0.2 mm 2 mps 741 mmHg 92%
16:00 +9°C° 0.2 mm 2 mps 741 mmHg 95%
17:00 +9°C° 0.2 mm 2 mps 741 mmHg 97%
18:00 +9°C° 0.4 mm 2 mps 741 mmHg 97%
19:00 +9°C° 0.4 mm 2 mps 742 mmHg 97%
20:00 +9°C° 0.4 mm 2 mps 742 mmHg 96%
21:00 +8°C° 0 mm 2 mps 742 mmHg 96%
22:00 +7°C° 0 mm 2 mps 742 mmHg 96%
23:00 +7°C° 0 mm 2 mps 742 mmHg 96%

Pasado mañana, 25 Octubre, Domingo

Tiempo Temperatura Precipitaciones Viento Presión Humedad
00:00 +7°C° 0 mm 3 mps 742 mmHg 95%
01:00 +7°C° 0 mm 3 mps 742 mmHg 95%
02:00 +7°C° 0 mm 3 mps 742 mmHg 95%
03:00 +7°C° 0 mm 3 mps 743 mmHg 94%
04:00 +7°C° 0 mm 4 mps 743 mmHg 94%
05:00 +7°C° 0 mm 4 mps 743 mmHg 93%
06:00 +7°C° 0 mm 4 mps 744 mmHg 92%
07:00 +7°C° 0 mm 4 mps 744 mmHg 91%
08:00 +7°C° 0 mm 4 mps 744 mmHg 90%
09:00 +8°C° 0 mm 4 mps 745 mmHg 85%
10:00 +10°C° 0 mm 4 mps 746 mmHg 79%
11:00 +10°C° 0 mm 4 mps 746 mmHg 74%
12:00 +10°C° 0 mm 4 mps 747 mmHg 74%
13:00 +10°C° 0 mm 4 mps 747 mmHg 74%
14:00 +10°C° 0 mm 4 mps 747 mmHg 75%
15:00 +10°C° 0 mm 3 mps 748 mmHg 77%
16:00 +9°C° 0 mm 3 mps 748 mmHg 79%
17:00 +9°C° 0 mm 2 mps 748 mmHg 81%
18:00 +9°C° 0 mm 2 mps 748 mmHg 81%
19:00 +10°C° 0 mm 1 mps 749 mmHg 82%
20:00 +9°C° 0 mm 1 mps 749 mmHg 82%
21:00 +9°C° 0 mm 1 mps 749 mmHg 81%
22:00 +9°C° 0 mm 1 mps 749 mmHg 81%
23:00 +9°C° 0 mm 1 mps 750 mmHg 81%

, 26 Octubre, Lunes

Tiempo Temperatura Precipitaciones Viento Presión Humedad
00:00 +9°C° 0 mm 1 mps 750 mmHg 81%
01:00 +9°C° 0 mm 1 mps 750 mmHg 82%
02:00 +8°C° 0 mm 2 mps 750 mmHg 82%
03:00 +8°C° 0 mm 2 mps 750 mmHg 82%
04:00 +8°C° 0 mm 2 mps 750 mmHg 83%
05:00 +8°C° 0 mm 2 mps 750 mmHg 83%
06:00 +8°C° 0 mm 2 mps 750 mmHg 83%
07:00 +8°C° 0 mm 2 mps 751 mmHg 82%
08:00 +8°C° 0 mm 2 mps 751 mmHg 82%
09:00 +8°C° 0 mm 3 mps 751 mmHg 79%
10:00 +9°C° 0 mm 3 mps 751 mmHg 77%
11:00 +8°C° 0 mm 4 mps 751 mmHg 74%
12:00 +8°C° 0 mm 4 mps 751 mmHg 74%
13:00 +8°C° 0 mm 4 mps 751 mmHg 74%
14:00 +8°C° 0 mm 4 mps 750 mmHg 74%
15:00 +8°C° 0 mm 4 mps 750 mmHg 76%
16:00 +9°C° 0 mm 3 mps 750 mmHg 78%
17:00 +9°C° 0 mm 3 mps 750 mmHg 80%
18:00 +8°C° 0 mm 3 mps 750 mmHg 81%
19:00 +7°C° 0 mm 4 mps 750 mmHg 82%
20:00 +7°C° 0 mm 4 mps 750 mmHg 84%
21:00 +7°C° 0 mm 4 mps 750 mmHg 86%
22:00 +6°C° 0 mm 4 mps 750 mmHg 88%
23:00 +6°C° 0 mm 4 mps 750 mmHg 90%

26 Octubre, Lunes

Tiempo Temperatura Precipitaciones Viento Presión Humedad
00:00 +9°C° 0 mm 1 mps 750 mmHg 81%
01:00 +9°C° 0 mm 1 mps 750 mmHg 82%
02:00 +8°C° 0 mm 2 mps 750 mmHg 82%
03:00 +8°C° 0 mm 2 mps 750 mmHg 82%
04:00 +8°C° 0 mm 2 mps 750 mmHg 83%
05:00 +8°C° 0 mm 2 mps 750 mmHg 83%
06:00 +8°C° 0 mm 2 mps 750 mmHg 83%
07:00 +8°C° 0 mm 2 mps 751 mmHg 82%
08:00 +8°C° 0 mm 2 mps 751 mmHg 82%
09:00 +8°C° 0 mm 3 mps 751 mmHg 79%
10:00 +9°C° 0 mm 3 mps 751 mmHg 77%
11:00 +8°C° 0 mm 4 mps 751 mmHg 74%
12:00 +8°C° 0 mm 4 mps 751 mmHg 74%
13:00 +8°C° 0 mm 4 mps 751 mmHg 74%
14:00 +8°C° 0 mm 4 mps 750 mmHg 74%
15:00 +8°C° 0 mm 4 mps 750 mmHg 76%
16:00 +9°C° 0 mm 3 mps 750 mmHg 78%
17:00 +9°C° 0 mm 3 mps 750 mmHg 80%
18:00 +8°C° 0 mm 3 mps 750 mmHg 81%
19:00 +7°C° 0 mm 4 mps 750 mmHg 82%
20:00 +7°C° 0 mm 4 mps 750 mmHg 84%
21:00 +7°C° 0 mm 4 mps 750 mmHg 86%
22:00 +6°C° 0 mm 4 mps 750 mmHg 88%
23:00 +6°C° 0 mm 4 mps 750 mmHg 90%

27 Octubre, Martes

Tiempo Temperatura Precipitaciones Viento Presión Humedad
00:00 +6°C° 0 mm 4 mps 750 mmHg 90%
01:00 +5°C° 0 mm 4 mps 750 mmHg 90%
02:00 +5°C° 0 mm 4 mps 749 mmHg 90%
03:00 +5°C° 0 mm 4 mps 749 mmHg 90%
04:00 +6°C° 0 mm 4 mps 749 mmHg 89%
05:00 +6°C° 0 mm 4 mps 749 mmHg 88%
06:00 +6°C° 0 mm 4 mps 749 mmHg 86%
07:00 +6°C° 0 mm 5 mps 749 mmHg 85%
08:00 +6°C° 0 mm 5 mps 749 mmHg 84%
09:00 +6°C° 0 mm 5 mps 749 mmHg 82%
10:00 +7°C° 0 mm 5 mps 749 mmHg 80%
11:00 +7°C° 0 mm 5 mps 749 mmHg 78%
12:00 +7°C° 0 mm 4 mps 749 mmHg 79%
13:00 +7°C° 0 mm 4 mps 749 mmHg 80%
14:00 +7°C° 0 mm 4 mps 749 mmHg 80%
15:00 +7°C° 0 mm 4 mps 749 mmHg 80%
16:00 +7°C° 0 mm 4 mps 749 mmHg 80%
17:00 +7°C° 0 mm 4 mps 749 mmHg 80%
18:00 +8°C° 0 mm 4 mps 749 mmHg 79%
19:00 +8°C° 0 mm 4 mps 749 mmHg 77%
20:00 +8°C° 0 mm 4 mps 749 mmHg 75%
21:00 +7°C° 0 mm 4 mps 749 mmHg 77%
22:00 +7°C° 0 mm 4 mps 749 mmHg 78%
23:00 +7°C° 0 mm 4 mps 748 mmHg 79%

28 Octubre, Miércoles

Tiempo Temperatura Precipitaciones Viento Presión Humedad
00:00 +6°C° 0 mm 4 mps 748 mmHg 80%
01:00 +7°C° 0 mm 3 mps 748 mmHg 80%
02:00 +7°C° 0 mm 3 mps 748 mmHg 81%
03:00 +7°C° 0 mm 3 mps 748 mmHg 83%
04:00 +5°C° 0 mm 3 mps 748 mmHg 84%
05:00 +5°C° 0 mm 3 mps 748 mmHg 86%
06:00 +5°C° 0 mm 3 mps 748 mmHg 85%
07:00 +7°C° 0 mm 3 mps 748 mmHg 84%
08:00 +7°C° 0 mm 3 mps 748 mmHg 83%
09:00 +7°C° 0 mm 4 mps 748 mmHg 79%
10:00 +8°C° 0 mm 4 mps 748 mmHg 75%
11:00 +10°C° 0 mm 4 mps 748 mmHg 72%
12:00 +10°C° 0 mm 4 mps 748 mmHg 71%
13:00 +11°C° 0 mm 3 mps 748 mmHg 71%
14:00 +11°C° 0 mm 3 mps 748 mmHg 70%
15:00 +10°C° 0 mm 3 mps 748 mmHg 75%
16:00 +9°C° 0 mm 3 mps 748 mmHg 79%
17:00 +8°C° 0 mm 3 mps 748 mmHg 83%
18:00 +8°C° 0 mm 3 mps 748 mmHg 84%
19:00 +8°C° 0 mm 3 mps 748 mmHg 85%
20:00 +7°C° 0 mm 3 mps 748 mmHg 86%
21:00 +7°C° 0 mm 3 mps 748 mmHg 86%
22:00 +7°C° 0 mm 3 mps 748 mmHg 87%
23:00 +5°C° 0 mm 3 mps 748 mmHg 87%
Mostrar más

Necesitamos Su Consentimiento

Meteoprog y nuestros Proveedores de Servicios pueden almacenar y acceder a sus datos personales como cookies, identificadores de dispositivo u otras tecnologías similares de su dispositivo y procesar dichos datos para personalizar contenido y anuncios, además de ofrecer funciones de redes sociales y analizar el tráfico.

  • Almacenar y/o acceder a información en su dispositivo

    Se puede almacenar o acceder a cookies, identificadores de dispositivo u otra información de su dispositivo para los fines anteriormente indicados.

  • Anuncios y contenido personalizados, medición de anuncios y contenido, percepciones del público, y desarrollo de productos

    Los anuncios y el contenido pueden personalizarse en base a su perfil. Se pueden añadir más datos para personalizar mejor los anuncios y contenidos. Se puede medir el rendimiento de los anuncios y contenidos. Se puede obtener la percepción sobre el público que ha visto los anuncios y contenidos. Dichos datos pueden usarse para desarrollar o mejorar la experiencia del usuario, sistemas y software.

Al hacer clic en ‘Estoy De Acuerdo’ usted permitirá el uso de las cookies, identificadores de dispositivo, balizas web u otras tecnologías similares indicadas. Su configuración puede cambiarse desde el navegador de su dispositivo.

Para ciertos fines, los intereses legítimos pueden ser considerados por encima del consentimiento. Puede leer más sobre ello en nuestra Política de Privacidad y Cookies.